Location: Unspecified
(35.6961°N, 0.0000°E)
Time: 01:39:11
(UTC+00:00)

Altair - Pass Details

Date: 25 May 2019
Orbit: 1501 x 1683 km, 47.2° (Epoch: 16 June)

Event Time Altitude Azimuth Distance (km) Brightness Sun altitude
Rises 00:21:49 0° 179° (S) 4,828 - -33.1°
Reaches altitude 10° 00:26:17 10° 161° (SSE) 3,875 - -33.0°
Maximum altitude 00:32:21 18° 123° (ESE) 3,307 - -32.8°
Exits shadow 00:32:51 18° 119° (ESE) 3,314 9.0 -32.8°
Drops below altitude 10° 00:38:27 10° 85° (E) 3,939 9.8 -32.6°
Sets 00:42:59 0° 68° (ENE) 4,937 10.6 -32.4°
